Regional Weather Roundup
Issued by NWS

Home | Current Version | Previous Version | Text Only | Print | Product List | Glossary On
Versions: 1 2 3 4 5 6 7 8 9 10 11 12 13 14 15 16 17 18 19 20 21 22 23 24 25 26 27 28 29 30 31 32 33 34 35 36 37 38 39 40 41 42 43 44 45 46 47 48 49 50
000
ASUS44 KLIX 160710
RWRLA
LOUISIANA WEATHER ROUNDUP
NATIONAL WEATHER SERVICE NEW ORLEANS LA
200 AM CDT TUE SEP 16 2014

NOTE: "FAIR" INDICATES FEW OR NO CLOUDS BELOW 12,000 FEET WITH NO
      SIGNIFICANT WEATHER AND/OR OBSTRUCTIONS TO VISIBILITY.
      SKY/WX - SKY CONDITION AND SIGNIFICANT WEATHER.
      TMP - AIR TEMPERATURE.    DP   - DEWPOINT TEMPERATURE.
      RH  - RELATIVE HUMIDITY.  PRES - PRESSURE.
      HX  - HEAT INDEX.         WCI  - WIND CHILL INDEX.

*  THESE STATIONS ARE NOT NWS OR FAA STATIONS AND ARE NOT UNDER
   NWS QUALITY CONTROL.

LAZ040-048-061>063-065-066-069-160800-
SOUTHEAST LOUISIANA

CITY           SKY/WX    TMP DP  RH WIND       PRES   REMARKS
N.O. AUDUBON     N/A     79  78  97 MISG        N/A
N.O. INTL ARPT MOCLDY    77  75  93 W3        30.07F
N.O. LAKEFRONT PTCLDY    82  76  81 W9        30.07F
N.O. DOWNTOWN* FAIR      81  72  74 CALM      30.08S
SLIDELL        PTCLDY    75  73  93 CALM      30.07S
BATON ROUGE    PTCLDY    75  73  93 E3        30.08S
BOOTHVILLE     CLEAR     82  76  81 W5        30.07S
BELLE CHASSE   PTCLDY    76  73  91 SW3       30.07S
BOGALUSA*      FAIR      76  72  88 CALM      30.09S FOG
GALLIANO*      NOT AVBL
NEW ROADS*     FAIR      74  74  98 CALM      30.08S
GONZALES*      FAIR      75  75 100 CALM      30.08S FOG
HAMMOND*       MOCLDY    77  73  88 CALM      30.09F
HOUMA*         PTCLDY    75  73  91 CALM      30.07S
PORT FOURCHON* CLOUDY    81  73  78 VRB5      30.10S

$$

LAZ041-044-053-054-160800-
SOUTHWEST LOUISIANA

CITY           SKY/WX    TMP DP  RH WIND       PRES   REMARKS
LAKE CHARLES   CLEAR     76  74  93 NE5       30.06F
LAFAYETTE      CLEAR     74  74 100 N3        30.08S
PATTERSON      PTCLDY    75  73  94 CALM      30.10S
SALT POINT       N/A     81  78  91 CALM      30.06S
NEW IBERIA     CLEAR     76  73  91 NE3       30.08S
CHENAULT AIRPK CLEAR     76  72  86 CALM      30.08S

$$

LAZ027-028-160800-
CENTRAL LOUISIANA

CITY           SKY/WX    TMP DP  RH WIND       PRES   REMARKS
FORT POLK      PTCLDY    76  73  91 NE3       30.09F
ALEXANDRIA INT MOCLDY    76  72  87 CALM      30.07F
ALEXANDRIA     CLOUDY    76  72  87 NE3       30.09F

$$

LAZ001-002-160800-
NORTHWEST LOUISIANA

CITY           SKY/WX    TMP DP  RH WIND       PRES   REMARKS
SHREVEPORT     CLOUDY    75  70  84 E3        30.11R
BARKSDALE AFB  CLOUDY    73  69  88 CALM      30.12R
DTN SHREVEPORT CLOUDY    74  70  87 CALM      30.11S

$$

LAZ014-016-160800-
NORTHEAST LOUISIANA

CITY           SKY/WX    TMP DP  RH WIND       PRES   REMARKS
MONROE         PTCLDY    72  69  90 CALM      30.12S
TALLULAH       CLEAR     74  69  85 N3        30.10S

$$



USA.gov is the U.S. government's official web portal to all federal, state and local government web resources and services.